Date String (YYYY-MM-DD hh:mm:ss) UTC,Instrument flags,absolute air pressure of the measurement (hPa),sample flow rate (lpm),inlet stack bypass flow (lpm),air temperature of the measurement (°C),ambient temperature measured by the external sensor (°C),aerosol sample conditioner tube jacket temperature (°C),OPC LED temperature (°C),internal box temperature (°C),relative humidity of the measurement (%),span deviation,mass concentration of particles derived from Lorenz-Mie calculation of OPC scattering (μg/m³),mass concentration of particles derived from Lorenz-Mie calculation of OPC scattering (μg/m³),mass concentration of particles derived from Lorenz-Mie calculation of OPC scattering (μg/m³)
DateTimeUTC,F1_M11,P_M11,Q1_M11,Q2_M11,T1_M11,T2_M11,T3_M11,T4_M11,T5_M11,U1_M11,ZSPAN_M11,X0_M11,X2_M11,X1_M11
2023-08-18 00:00:00,SystemResetWarning,0831.2,4.99,000.00,027.8,026.2,000.0,036.0,029.5,33.9,0001.8,0022.75,0014.46,0012.86
2023-08-18 00:01:00,SystemResetWarning,0831.2,4.99,000.00,027.9,025.9,000.0,036.0,029.5,34.2,0001.8,0024.34,0014.50,0012.90
2023-08-18 00:02:00,SystemResetWarning,0831.2,4.99,000.00,027.8,024.5,000.0,035.9,029.2,34.2,0001.8,0025.32,0014.55,0012.95
2023-08-18 00:03:00,SystemResetWarning,0831.2,5.01,000.00,027.7,024.0,000.0,035.9,029.1,34.1,0001.7,0024.72,0014.64,0013.00
2023-08-18 00:04:00,SystemResetWarning,0831.2,5.02,000.00,027.7,024.1,000.0,035.9,029.0,34.2,0001.5,0025.22,0014.72,0013.03
2023-08-18 00:05:00,SystemResetWarning,0831.2,5.00,000.00,027.6,024.5,000.0,035.9,029.0,34.5,0001.2,0025.85,0014.80,0013.11
2023-08-18 00:06:00,SystemResetWarning,0831.2,5.00,000.00,027.6,024.9,000.0,035.9,029.2,34.7,0000.7,0026.45,0014.80,0013.15
2023-08-18 00:07:00,SystemResetWarning,0831.2,5.00,000.00,027.7,025.4,000.0,036.0,029.3,34.5,0000.7,0027.75,0014.78,0013.17
2023-08-18 00:08:00,SystemResetWarning,0831.1,5.00,000.00,027.7,025.8,000.0,036.0,029.4,34.1,0000.9,0027.88,0014.78,0013.22
2023-08-18 00:09:00,SystemResetWarning,0831.1,5.00,000.00,027.8,026.2,000.0,036.0,029.6,34.1,0000.9,0028.24,0014.86,0013.26
2023-08-18 00:10:00,SystemResetWarning,0831.1,4.99,000.00,027.8,026.0,000.0,036.0,029.5,34.1,0001.1,0029.01,0014.90,0013.29
2023-08-18 00:11:00,SystemResetWarning,0831.1,4.99,000.00,027.8,024.6,000.0,035.9,029.3,34.0,0000.9,0029.10,0014.86,0013.29
2023-08-18 00:12:00,SystemResetWarning,0831.2,5.01,000.00,027.7,024.0,000.0,035.8,029.1,34.1,0000.9,0027.99,0014.89,0013.29
2023-08-18 00:13:00,SystemResetWarning,0831.1,5.01,000.00,027.6,024.1,000.0,035.8,028.9,34.3,0000.6,0027.57,0014.85,0013.27
2023-08-18 00:14:00,SystemResetWarning,0831.2,5.00,000.00,027.6,024.5,000.0,035.9,028.9,34.6,0000.5,0028.14,0014.80,0013.27
2023-08-18 00:15:00,SystemResetWarning,0831.2,5.00,000.00,027.6,024.9,000.0,035.9,029.1,34.5,0000.6,0027.43,0014.71,0013.28
2023-08-18 00:16:00,SystemResetWarning,0831.2,5.00,000.00,027.6,025.4,000.0,035.9,029.3,34.3,0001.1,0027.09,0014.66,0013.27
2023-08-18 00:17:00,SystemResetWarning,0831.1,5.00,000.00,027.7,025.8,000.0,035.9,029.4,34.3,0001.6,0027.05,0014.60,0013.25
2023-08-18 00:18:00,SystemResetWarning,0831.1,5.00,000.00,027.7,026.2,000.0,036.0,029.5,34.3,0001.7,0026.20,0014.59,0013.25
2023-08-18 00:19:00,SystemResetWarning,0831.1,4.99,000.00,027.8,026.0,000.0,036.0,029.6,34.0,0001.6,0026.42,0014.58,0013.23
2023-08-18 00:20:00,SystemResetWarning,0831.1,4.99,000.00,027.8,024.7,000.0,035.9,029.2,34.1,0001.7,0026.63,0014.55,0013.23
2023-08-18 00:21:00,SystemResetWarning,0831.0,5.01,000.00,027.7,024.0,000.0,035.8,029.1,34.1,0001.6,0026.55,0014.56,0013.23
2023-08-18 00:22:00,SystemResetWarning,0831.0,5.02,000.00,027.6,024.1,000.0,035.8,029.0,34.3,0001.7,0028.54,0014.62,0013.26
2023-08-18 00:23:00,SystemResetWarning,0831.0,5.00,000.00,027.6,024.4,000.0,035.9,029.0,34.3,0001.6,0028.69,0014.62,0013.26
2023-08-18 00:24:00,SystemResetWarning,0830.9,5.00,000.00,027.6,024.9,000.0,035.9,029.1,34.3,0001.8,0028.99,0014.61,0013.28
2023-08-18 00:25:00,SystemResetWarning,0831.0,5.00,000.00,027.6,025.3,000.0,035.9,029.3,34.2,0001.6,0029.04,0014.64,0013.27
2023-08-18 00:26:00,SystemResetWarning,0831.0,5.00,000.00,027.7,025.7,000.0,035.9,029.4,34.2,0001.8,0030.29,0014.73,0013.27
2023-08-18 00:27:00,SystemResetWarning,0831.0,5.00,000.00,027.7,026.1,000.0,036.0,029.5,34.0,0001.4,0031.41,0014.79,0013.26
2023-08-18 00:28:00,SystemResetWarning,0830.9,4.98,000.00,027.7,025.3,000.0,035.9,029.4,33.9,0001.3,0031.22,0014.89,0013.27
2023-08-18 00:29:00,SystemResetWarning,0830.9,5.00,000.00,027.7,024.1,000.0,035.8,029.0,34.1,0001.1,0031.12,0014.96,0013.31
2023-08-18 00:30:00,SystemResetWarning,0830.9,5.01,000.00,027.6,023.9,000.0,035.8,028.9,34.1,0001.0,0031.06,0014.96,0013.32
2023-08-18 00:31:00,SystemResetWarning,0830.9,5.01,000.00,027.5,024.2,000.0,035.8,028.8,34.2,0000.7,0030.43,0014.99,0013.34
2023-08-18 00:32:00,SystemResetWarning,0830.9,4.99,000.00,027.5,024.6,000.0,035.8,029.0,34.3,0000.5,0030.11,0015.00,0013.36
2023-08-18 00:33:00,SystemResetWarning,0830.9,5.00,000.00,027.5,025.0,000.0,035.8,029.1,34.2,0000.5,0028.35,0015.01,0013.38
2023-08-18 00:34:00,SystemResetWarning,0830.9,5.00,000.00,027.6,025.5,000.0,035.9,029.3,34.3,0000.6,0027.73,0015.01,0013.38
2023-08-18 00:35:00,SystemResetWarning,0830.9,5.00,000.00,027.6,025.9,000.0,035.9,029.4,34.1,0000.7,0028.25,0015.05,0013.39
2023-08-18 00:36:00,SystemResetWarning,0830.8,5.00,000.00,027.7,025.9,000.0,035.9,029.5,34.1,0001.1,0028.29,0015.11,0013.40
2023-08-18 00:37:00,SystemResetWarning,0830.9,4.98,000.00,027.7,024.6,000.0,035.8,029.2,33.9,0001.0,0027.83,0015.13,0013.42
2023-08-18 00:38:00,SystemResetWarning,0830.8,5.01,000.00,027.6,023.9,000.0,035.8,029.0,34.3,0001.1,0026.45,0015.16,0013.45
2023-08-18 00:39:00,SystemResetWarning,0830.8,5.01,000.00,027.5,024.0,000.0,035.7,028.9,34.4,0001.2,0026.96,0015.11,0013.47
2023-08-18 00:40:00,SystemResetWarning,0830.8,5.00,000.00,027.5,024.3,000.0,035.8,028.9,34.6,0001.5,0029.04,0015.13,0013.47
2023-08-18 00:41:00,SystemResetWarning,0830.8,5.00,000.00,027.5,024.7,000.0,035.8,029.0,34.5,0001.8,0028.71,0015.16,0013.49
2023-08-18 00:42:00,SystemResetWarning,0830.8,5.01,000.00,027.5,025.2,000.0,035.8,029.2,34.6,0002.2,0029.29,0015.23,0013.51
2023-08-18 00:43:00,SystemResetWarning,0830.8,5.00,000.00,027.6,025.6,000.0,035.9,029.3,34.6,0002.8,0028.98,0015.27,0013.53
2023-08-18 00:44:00,SystemResetWarning,0830.9,5.00,000.00,027.6,026.0,000.0,035.9,029.4,34.4,0002.6,0029.03,0015.26,0013.53
2023-08-18 00:45:00,SystemResetWarning,0830.8,4.99,000.00,027.7,026.1,000.0,035.9,029.5,34.2,0002.5,0029.51,0015.26,0013.52
2023-08-18 00:46:00,SystemResetWarning,0830.8,4.98,000.00,027.6,024.8,000.0,035.8,029.2,34.4,0002.5,0030.37,0015.23,0013.52
2023-08-18 00:47:00,SystemResetWarning,0830.8,5.01,000.00,027.6,023.9,000.0,035.7,029.0,34.7,0002.4,0030.83,0015.17,0013.52
2023-08-18 00:48:00,SystemResetWarning,0830.8,5.02,000.00,027.5,024.0,000.0,035.7,028.9,34.5,0002.4,0030.60,0015.12,0013.52
2023-08-18 00:49:00,SystemResetWarning,0830.7,4.99,000.00,027.4,024.3,000.0,035.7,028.8,34.8,0002.7,0030.35,0015.03,0013.47
2023-08-18 00:50:00,SystemResetWarning,0830.7,5.00,000.00,027.5,024.7,000.0,035.8,029.0,34.9,0002.5,0028.97,0014.96,0013.42
2023-08-18 00:51:00,SystemResetWarning,0830.7,4.99,000.00,027.5,025.2,000.0,035.8,029.2,35.0,0002.4,0027.36,0014.92,0013.39
2023-08-18 00:52:00,SystemResetWarning,0830.7,5.04,000.00,027.6,025.6,000.0,035.8,029.3,34.8,0002.2,0027.74,0014.88,0013.37
2023-08-18 00:53:00,SystemResetWarning,0830.8,4.96,000.00,027.8,026.0,000.0,035.9,029.5,34.4,0002.1,0027.34,0014.79,0013.31
2023-08-18 00:54:00,SystemResetWarning,0830.8,5.02,000.00,027.9,026.1,000.0,035.9,029.6,34.0,0001.7,0027.13,0014.71,0013.26
2023-08-18 00:55:00,SystemResetWarning,0830.7,5.00,000.00,027.9,024.9,000.0,035.8,029.3,34.0,0001.9,0026.81,0014.64,0013.21
2023-08-18 00:56:00,SystemResetWarning,0830.7,4.99,000.00,027.8,024.0,000.0,035.8,029.0,34.0,0002.2,0027.49,0014.56,0013.18
2023-08-18 00:57:00,SystemResetWarning,0830.7,5.01,000.00,027.8,024.0,000.0,035.8,029.0,34.1,0001.9,0026.04,0014.53,0013.14
2023-08-18 00:58:00,SystemResetWarning,0830.7,5.01,000.00,027.7,024.3,000.0,035.8,028.9,34.3,0001.8,0024.92,0014.52,0013.08
2023-08-18 00:59:00,SystemResetWarning,0830.7,4.99,000.00,027.7,024.7,000.0,035.9,029.1,34.3,0002.1,0024.92,0014.49,0013.04
